Hourly Data Report for September 12, 2017

All times are specified in Local Standard Time (LST). Add 1 hour to adjust for Daylight Saving Time where and when it is observed.

RESOLUTE BAY A
NUNAVUT

74°43'01.000" N
94°58'10.000" W
67.70 m
2403498
71924
YRB

Download Data

Hourly Data (September 2017)
Hourly Data Report for September 12, 2017
Temp Definition
°C
Dew Point Temp Definition
°C
Rel Hum Definition
%
Wind Dir Definition
10's deg

Wind Spd Definition
km/h
Visibility Definition
km
Stn Press Definition
kPa
Hmdx Definition


Wind Chill Definition


Weather Definition


TIME
00:00 Legend Double Dagger -3.7 -6.2 83 5 10 24.1 100.47   -8 Cloudy
01:00 Legend Double Dagger -3.6 -5.9 84 8 11 24.1 100.47   -8 LegendNANA
02:00 Legend Double Dagger -3.2 -5.5 85 5 5 24.1 100.50   -5 LegendNANA
03:00 Legend Double Dagger -3.5 -5.1 89 4 8 16.1 100.55   -7 Snow
04:00 Legend Double Dagger -4.8 -6.3 89 5 21 4.8 100.58   -11 Snow
05:00 Legend Double Dagger -4.8 -6.4 89 5 21 12.9 100.63   -11 Snow
06:00 Legend Double Dagger -4.9 -6.5 89 5 18 19.3 100.68   -11 Cloudy
07:00 Legend Double Dagger -4.9 -6.7 88 4 15 19.3 100.69   -10 Freezing Drizzle
08:00 Legend Double Dagger -5.0 -6.8 88 2 14 24.1 100.72   -10 LegendNANA
09:00 Legend Double Dagger -5.3 -6.5 91 2 17 16.1 100.75   -11 Cloudy
10:00 Legend Double Dagger -5.8 -6.8 92 35 18 24.1 100.77   -12 Freezing Drizzle
11:00 Legend Double Dagger -5.6 -7.0 90 34 15 24.1 100.78   -11 LegendNANA
12:00 Legend Double Dagger -5.2 -7.4 84 36 11 24.1 100.81   -10 Mostly Cloudy
13:00 Legend Double Dagger -5.3 -7.3 86 35 13 24.1 100.83   -10 LegendNANA
14:00 Legend Double Dagger -5.7 -7.8 85 36 17 24.1 100.87   -12 LegendNANA
15:00 Legend Double Dagger -5.6 -7.7 86 3 14 24.1 100.91   -11 Cloudy
16:00 Legend Double Dagger -5.7 -7.8 85 4 11 24.1 100.94   -10 LegendNANA
17:00 Legend Double Dagger -5.6 -7.7 86 5 10 24.1 100.94   -10 LegendNANA
18:00 Legend Double Dagger -5.8 -7.9 86 5 9 24.1 100.97   -10 Cloudy
19:00 Legend Double Dagger -5.9 -7.7 87 6 8 24.1 100.98   -10 LegendNANA
20:00 Legend Double Dagger -6.1 -7.8 88 8 10 24.1 100.98   -11 LegendNANA
21:00 Legend Double Dagger -6.7 -8.0 91 8 13 24.1 100.97   -12 Cloudy
22:00 Legend Double Dagger -6.5 -7.5 93 5 16 24.1 100.96   -13 LegendNANA
23:00 Legend Double Dagger -5.8 -6.8 93 7 19 16.1 100.94   -12 LegendNANA

Notes on Data Quality.

Legend

  • E = Estimated
  • M = Missing
  • NA = Not Available
  • ‡ = Partner data that is not subject to review by the National Climate Archives
Date modified: